Location: *
(33.8649°S, 62.1526°E)
Time: 16:52:03
(UTC+00:00)

Cosmos 1850 Rocket - Pass Details

Date: 17 January 2021
Orbit: 755 x 785 km, 74.0° (Epoch: 03 March)

Event Time Altitude Azimuth Distance (km) Brightness Sun altitude
Exits shadow 23:11:29 30° 350° (N) 1,335 4.8 -19.3°
Maximum altitude 23:14:06 82° 73° (ENE) 776 4.0 -18.9°
Drops below altitude 10° 23:19:22 10° 161° (SSE) 2,318 7.4 -18.1°
Sets 23:21:46 0° 161° (SSE) 3,255 8.3 -17.7°
